EW7678 Weather Reports


time (UTC)temp
C
wind
direction
speed
KPH
gust
KPH
rain 1hr
cm
rain 24hr
cm
rain mn
cm
humidity
%
barometer
mb
20260904044530 10 120 0.0 0.0 0.00 0.00 0.00 96 1011.0
20260904043019 10 120 0.0 0.0 0.00 0.00 0.00 96 1010.9
20260904041517 11 120 0.0 0.0 0.00 0.00 0.00 96 1011.0
20260904040015 11 120 0.0 0.0 0.00 0.00 0.00 95 1010.9
20260904034527 11 120 0.0 0.0 0.00 0.00 0.00 96 1010.8
20260904033010 11 120 0.0 0.0 0.00 0.00 0.00 95 1010.9
20260904031512 12 120 0.0 0.0 0.00 0.00 0.00 95 1010.8
20260904030006 12 120 0.0 0.0 0.00 0.00 0.00 95 1010.6
20260904024505 12 120 0.0 0.0 0.00 0.00 0.00 94 1010.4
20260904023104 12 120 0.0 0.0 0.00 0.00 0.00 94 1010.4
20260904021503 13 120 0.0 0.0 0.00 0.00 0.00 94 1010.3
20260904020003 13 120 0.0 0.0 0.00 0.00 0.00 93 1010.4
20260904014502 14 120 0.0 0.0 0.00 0.00 0.00 93 1010.3
20260904013002 14 120 0.0 0.0 0.00 0.00 0.00 92 1010.3
20260904011507 14 120 0.0 0.0 0.00 0.00 0.00 90 1010.3
20260904010002 14 120 0.0 0.0 0.00 0.00 0.00 90 1010.3
20260904004501 14 246 0.0 0.0 0.00 0.00 0.00 90 1010.3
20260904003101 15 246 0.0 0.0 0.00 0.00 0.00 89 1010.4
20260904001600 14 246 0.0 1.6 0.00 0.00 0.00 89 1010.3
20260903234559 14 24 0.0 3.2 0.00 0.00 0.00 90 1010.4
20260903233058 14 286 0.0 1.6 0.00 0.00 0.00 92 1010.4
20260903231559 14 339 0.0 1.6 0.00 0.00 0.00 92 1010.3
20260903230056 14 60 0.0 1.6 0.00 0.00 0.00 92 1010.2
20260903224556 14 297 0.0 1.6 0.00 0.00 0.00 91 1010.3
20260903223055 15 299 0.0 1.6 0.00 0.00 0.00 92 1010.2
20260903221555 15 299 0.0 0.0 0.00 0.00 0.00 91 1010.1
20260903220104 15 299 0.0 3.2 0.00 0.00 0.00 89 1010.1
20260903214552 15 248 0.0 0.0 0.00 0.00 0.00 90 1010.2
20260903213057 15 248 0.0 0.0 0.00 0.00 0.00 92 1010.2
20260903211553 14 158 0.0 1.6 0.00 0.00 0.00 92 1010.2
20260903210052 14 123 0.0 1.6 0.00 0.00 0.00 92 1010.1
20260903204545 14 261 0.0 0.0 0.00 0.00 0.00 93 1010.1
20260903203105 13 261 0.0 0.0 0.00 0.00 0.00 93 1010.0
20260903201541 13 261 0.0 0.0 0.00 0.00 0.00 95 1009.9
20260903200039 13 262 0.0 0.0 0.00 0.00 0.00 95 1009.9
20260903194538 13 262 0.0 0.0 0.00 0.00 0.00 95 1009.8
20260903193039 13 262 0.0 0.0 0.00 0.00 0.00 95 1009.6
20260903191534 13 271 0.0 1.6 0.00 0.00 0.00 95 1009.5
20260903190032 13 257 0.0 0.0 0.00 0.00 0.00 95 1009.4
20260903184534 13 257 0.0 1.6 0.00 0.00 0.00 95 1009.3
20260903183036 13 257 0.0 1.6 0.00 0.00 0.00 96 1009.1
20260903181528 13 17 0.0 3.2 0.00 0.00 0.00 96 1009.0
20260903180026 12 278 0.0 0.0 0.00 0.00 0.00 96 1008.9
20260903174526 12 324 0.0 0.0 0.00 0.00 0.00 97 1008.8
20260903173023 12 112 0.0 0.0 0.00 0.00 0.00 96 1008.6
20260903171523 12 287 0.0 0.0 0.00 0.00 0.00 97 1008.6
20260903170025 12 286 0.0 0.0 0.00 0.00 0.00 97 1008.4
20260903164519 12 287 0.0 0.0 0.00 0.00 0.00 97 1008.2
20260903163018 12 288 0.0 0.0 0.00 0.00 0.00 97 1008.2
20260903161516 12 288 0.0 0.0 0.00 0.00 0.00 97 1008.2
20260903160014 12 287 0.0 0.0 0.00 0.00 0.00 97 1008.0
20260903154510 12 287 0.0 0.0 0.00 0.00 0.00 97 1007.9
20260903153006 12 355 0.0 0.0 0.00 0.00 0.00 97 1007.9
20260903151506 12 356 0.0 1.6 0.00 0.00 0.00 97 1007.8
20260903150005 12 257 0.0 0.0 0.00 0.00 0.00 97 1007.8
20260903144505 12 41 0.0 0.0 0.00 0.00 0.00 97 1007.7
20260903143100 11 41 0.0 0.0 0.00 0.00 0.00 97 1007.6
20260903141600 11 273 0.0 0.0 0.00 0.00 0.00 97 1007.5
20260903140059 12 259 0.0 0.0 0.00 0.00 0.00 97 1007.3
20260903134557 12 259 0.0 0.0 0.00 0.00 0.00 97 1007.1
20260903133100 12 289 0.0 0.0 0.00 0.00 0.00 97 1007.0
20260903131554 12 282 0.0 0.0 0.00 0.00 0.00 97 1007.0
20260903130052 12 282 0.0 0.0 0.00 0.00 0.00 97 1007.0
20260903124604 12 282 0.0 0.0 0.00 0.00 0.00 97 1006.8
20260903123049 12 282 0.0 0.0 0.00 0.00 0.00 97 1006.8
20260903121547 12 282 0.0 0.0 0.00 0.00 0.00 97 1006.6
20260903120057 13 282 0.0 0.0 0.00 0.00 0.00 97 1006.4
20260903114545 13 282 0.0 0.0 0.00 0.00 0.00 97 1006.4
20260903113112 13 282 0.0 0.0 0.00 0.00 0.00 97 1006.3
20260903111545 13 282 0.0 0.0 0.00 0.00 0.00 97 1006.4
20260903110042 12 282 0.0 0.0 0.00 0.00 0.00 97 1006.4
20260903104555 12 282 0.0 0.0 0.00 0.00 0.00 97 1006.3
20260903103039 12 282 0.0 0.0 0.00 0.00 0.00 97 1006.1
20260903101537 12 282 0.0 0.0 0.00 0.00 0.00 97 1006.1
20260903100039 12 282 0.0 0.0 0.00 0.00 0.00 97 1005.8
20260903094546 12 282 0.0 0.0 0.00 0.00 0.00 97 1005.8
20260903093034 12 282 0.0 0.0 0.00 0.00 0.00 97 1005.6
20260903091543 12 282 0.0 0.0 0.00 0.00 0.00 97 1005.4
20260903090027 12 282 0.0 0.0 0.00 0.00 0.00 97 1005.4
20260903084524 12 282 0.0 0.0 0.00 0.00 0.00 97 1005.1
20260903083023 12 282 0.0 0.0 0.00 0.00 0.00 97 1005.0
20260903081525 12 282 0.0 0.0 0.00 0.00 0.00 97 1004.9
20260903080021 12 282 0.0 0.0 0.00 0.00 0.00 97 1004.9
20260903074520 12 282 0.0 0.0 0.00 0.00 0.00 97 1004.8
20260903073030 11 282 0.0 0.0 0.00 0.00 0.00 96 1004.7
20260903071525 11 282 0.0 1.6 0.00 0.00 0.00 96 1004.3
20260903070015 11 254 0.0 0.0 0.00 0.00 0.00 97 1004.5
20260903064513 11 254 0.0 0.0 0.00 0.00 0.00 96 1004.6
20260903063013 11 254 0.0 0.0 0.00 0.00 0.00 96 1004.5
20260903061511 11 254 0.0 0.0 0.00 0.00 0.00 96 1004.5
20260903060010 11 254 0.0 0.0 0.00 0.00 0.00 96 1004.5
20260903054509 11 254 0.0 0.0 0.00 0.00 0.00 96 1004.6
20260903053016 11 254 0.0 0.0 0.00 0.00 0.00 96 1004.6
20260903051506 11 254 0.0 0.0 0.00 0.00 0.00 96 1004.5
20260903050005 11 255 0.0 0.0 0.00 0.00 0.00 96 1004.5